Satellite: AO-40 Catalog number: 26609 Epoch time: 01162.64128472 Element set: 95 Inclination: 5.2476 deg RA of node: 184.0505 deg Eccentricity: 0.8151007 Arg of perigee: 283.2084 deg Mean anomaly: 6.0056 deg Mean motion: 1.27068233 rev/day Decay rate: -1.25000e-06 rev/day^2 Epoch rev: 283 Checksum: 262